| time (UTC) | temp F | wind direction | speed knots | gust knots | rain 1hr in | rain 24hr in | rain mn in | humidity % | barometer mb |
| 20260505121540 | 0 | 0.0 | 0.0 | 0.00 | 0.00 | 0.00 | 1007.6 | ||
| 20260505120045 | 0 | 0.0 | 0.0 | 0.00 | 0.00 | 0.00 | 1007.5 | ||
| 20260505114544 | 0 | 0.0 | 0.0 | 0.00 | 0.00 | 0.00 | 1007.2 | ||
| 20260505113035 | 0 | 0.0 | 0.0 | 0.00 | 0.00 | 0.00 | 1006.8 | ||
| 20260505111535 | 0 | 0.0 | 0.0 | 0.00 | 0.00 | 0.00 | 85 | 1006.7 | |
| 20260505101545 | 66 | 199 | 0.0 | 6.1 | 0.00 | 0.00 | 0.00 | 83 | 1006.3 |
| 20260505100038 | 66 | 0 | 0.0 | 2.6 | 0.00 | 0.00 | 0.00 | 83 | 1006.5 |
| 20260505094537 | 66 | 233 | 0.0 | 5.2 | 0.00 | 0.00 | 0.00 | 82 | 1006.6 |
| 20260505093038 | 66 | 0 | 0.0 | 8.7 | 0.00 | 0.00 | 0.00 | 81 | 1006.4 |
| 20260505091537 | 66 | 0 | 0.0 | 2.6 | 0.00 | 0.00 | 0.00 | 81 | 1006.3 |
| 20260505090034 | 66 | 161 | 0.9 | 5.2 | 0.00 | 0.00 | 0.00 | 80 | 1006.6 |
| 20260505084535 | 66 | 158 | 0.0 | 3.5 | 0.00 | 0.00 | 0.00 | 80 | 1006.6 |
| 20260505083035 | 66 | 189 | 0.0 | 4.3 | 0.00 | 0.00 | 0.00 | 79 | 1006.7 |
| 20260505081532 | 66 | 148 | 0.0 | 3.5 | 0.00 | 0.00 | 0.00 | 78 | 1007.2 |
| 20260505080036 | 67 | 189 | 0.9 | 6.1 | 0.00 | 0.00 | 0.00 | 77 | 1007.3 |
| 20260505074537 | 67 | 138 | 0.0 | 4.3 | 0.00 | 0.00 | 0.00 | 76 | 1007.7 |
| 20260505073044 | 67 | 0 | 0.9 | 2.6 | 0.00 | 0.00 | 0.00 | 76 | 1007.5 |
| 20260505071545 | 67 | 0 | 0.0 | 1.7 | 0.00 | 0.00 | 0.00 | 75 | 1007.7 |
| 20260505070034 | 67 | 0 | 0.0 | 1.7 | 0.00 | 0.00 | 0.00 | 75 | 1008.0 |
| 20260505064539 | 67 | 38 | 0.0 | 3.5 | 0.00 | 0.00 | 0.00 | 75 | 1008.0 |
| 20260505063038 | 67 | 0 | 0.0 | 1.7 | 0.00 | 0.00 | 0.00 | 74 | 1008.3 |
| 20260505061536 | 66 | 0 | 0.0 | 3.5 | 0.00 | 0.00 | 0.00 | 74 | 1008.3 |
| 20260505060045 | 66 | 0 | 0.0 | 1.7 | 0.00 | 0.00 | 0.00 | 74 | 1008.5 |
| 20260505054536 | 65 | 304 | 0.0 | 0.9 | 0.00 | 0.00 | 0.00 | 74 | 1008.7 |
| 20260505053034 | 65 | 0 | 0.0 | 0.0 | 0.00 | 0.00 | 0.00 | 74 | 1008.9 |
| 20260505051550 | 65 | 0 | 0.0 | 0.9 | 0.00 | 0.00 | 0.00 | 74 | 1009.0 |
| 20260505041537 | 65 | 0 | 0.0 | 1.7 | 0.00 | 0.00 | 0.00 | 75 | 1009.5 |
| 20260505040040 | 64 | 0 | 0.0 | 1.7 | 0.00 | 0.00 | 0.00 | 76 | 1009.5 |
| 20260505034540 | 65 | 0 | 0.0 | 2.6 | 0.00 | 0.00 | 0.00 | 76 | 1009.6 |
| 20260505033037 | 64 | 64 | 0.0 | 0.9 | 0.00 | 0.00 | 0.00 | 77 | 1009.8 |
| 20260505031535 | 65 | 0 | 0.0 | 0.0 | 0.00 | 0.00 | 0.00 | 77 | 1009.9 |
| 20260505030035 | 65 | 0 | 0.0 | 0.0 | 0.00 | 0.00 | 0.00 | 76 | 1009.7 |
| 20260505024537 | 66 | 212 | 0.0 | 0.9 | 0.00 | 0.00 | 0.00 | 75 | 1009.5 |
| 20260505023038 | 66 | 0 | 0.0 | 0.0 | 0.00 | 0.00 | 0.00 | 74 | 1009.2 |
| 20260505021536 | 67 | 0 | 0.0 | 0.9 | 0.00 | 0.00 | 0.00 | 72 | 1008.9 |
| 20260505020035 | 67 | 0 | 0.0 | 0.0 | 0.00 | 0.00 | 0.00 | 71 | 1008.9 |
| 20260505014536 | 68 | 0 | 0.0 | 0.9 | 0.00 | 0.00 | 0.00 | 69 | 1008.8 |
| 20260505013057 | 69 | 36 | 0.0 | 1.7 | 0.00 | 0.00 | 0.00 | 68 | 1008.7 |
| 20260505011535 | 69 | 0 | 0.0 | 0.9 | 0.00 | 0.00 | 0.00 | 68 | 1008.5 |
| 20260505010038 | 70 | 0 | 0.0 | 0.9 | 0.00 | 0.00 | 0.00 | 66 | 1008.4 |
| 20260505004537 | 71 | 0 | 0.0 | 0.9 | 0.00 | 0.00 | 0.00 | 65 | 1008.5 |
| 20260505003035 | 72 | 0 | 0.0 | 0.9 | 0.00 | 0.00 | 0.00 | 63 | 1008.6 |
| 20260505001537 | 72 | 0 | 0.0 | 1.7 | 0.00 | 0.00 | 0.00 | 63 | 1008.6 |
| 20260505000051 | 73 | 0 | 0.0 | 0.9 | 0.00 | 0.00 | 0.00 | 62 | 1008.7 |
| 20260504234538 | 73 | 0 | 0.0 | 0.9 | 0.00 | 0.00 | 0.00 | 61 | 1008.9 |
| 20260504233041 | 73 | 0 | 0.0 | 3.5 | 0.00 | 0.00 | 0.00 | 62 | 1009.0 |
| 20260504231535 | 74 | 0 | 0.0 | 5.2 | 0.00 | 0.00 | 0.00 | 59 | 1009.3 |
| 20260504230035 | 74 | 0 | 0.0 | 3.5 | 0.00 | 0.00 | 0.00 | 57 | 1009.4 |
| 20260504224537 | 75 | 191 | 0.0 | 1.7 | 0.00 | 0.00 | 0.00 | 58 | 1009.7 |
| 20260504223038 | 75 | 0 | 0.0 | 4.3 | 0.00 | 0.00 | 0.00 | 56 | 1009.7 |
| 20260504221535 | 75 | 0 | 0.0 | 7.0 | 0.00 | 0.00 | 0.00 | 58 | 1009.6 |
| 20260504220041 | 75 | 207 | 0.9 | 5.2 | 0.00 | 0.00 | 0.00 | 57 | 1009.8 |
| 20260504214541 | 75 | 266 | 0.9 | 5.2 | 0.00 | 0.00 | 0.00 | 56 | 1009.9 |
| 20260504213035 | 76 | 318 | 0.9 | 5.2 | 0.00 | 0.00 | 0.00 | 55 | 1009.9 |
| 20260504211539 | 76 | 182 | 0.0 | 4.3 | 0.00 | 0.00 | 0.00 | 56 | 1010.1 |
| 20260504210037 | 76 | 150 | 0.0 | 3.5 | 0.00 | 0.00 | 0.00 | 54 | 1010.3 |
| 20260504204536 | 77 | 287 | 0.0 | 2.6 | 0.00 | 0.00 | 0.00 | 52 | 1010.7 |
| 20260504203037 | 77 | 91 | 1.7 | 4.3 | 0.00 | 0.00 | 0.00 | 52 | 1011.0 |
| 20260504201536 | 77 | 264 | 1.7 | 5.2 | 0.00 | 0.00 | 0.00 | 51 | 1011.2 |
| 20260504200038 | 77 | 278 | 0.0 | 3.5 | 0.00 | 0.00 | 0.00 | 51 | 1011.6 |
| 20260504194536 | 76 | 254 | 0.0 | 7.0 | 0.00 | 0.00 | 0.00 | 55 | 1011.8 |
| 20260504193036 | 75 | 276 | 1.7 | 7.8 | 0.00 | 0.00 | 0.00 | 54 | 1012.1 |
| 20260504191537 | 76 | 292 | 0.9 | 2.6 | 0.00 | 0.00 | 0.00 | 51 | 1012.2 |
| 20260504190039 | 75 | 278 | 0.9 | 7.0 | 0.00 | 0.00 | 0.00 | 52 | 1012.4 |
| 20260504184535 | 75 | 97 | 0.9 | 4.3 | 0.00 | 0.00 | 0.00 | 53 | 1012.5 |
| 20260504183033 | 75 | 291 | 0.9 | 3.5 | 0.00 | 0.00 | 0.00 | 52 | 1012.8 |
| 20260504181538 | 74 | 188 | 0.9 | 5.2 | 0.00 | 0.00 | 0.00 | 55 | 1012.7 |
| 20260504180035 | 74 | 307 | 1.7 | 5.2 | 0.00 | 0.00 | 0.00 | 54 | 1012.9 |
| 20260504174538 | 74 | 266 | 0.9 | 3.5 | 0.00 | 0.00 | 0.00 | 54 | 1013.2 |
| 20260504173038 | 74 | 259 | 0.0 | 6.1 | 0.00 | 0.00 | 0.00 | 55 | 1013.5 |
| 20260504171535 | 73 | 0 | 0.0 | 3.5 | 0.00 | 0.00 | 0.00 | 58 | 1013.5 |